Location: Newark
(48.5667°N, 7.8167°E)
Time: 13:58:10
(UTC+00:00)

DUCHIFAT 1 - Visible Passes

Search period start: 10 July 2020 00:00
Search period end: 20 July 2020 00:00
Orbit: 587 x 603 km, 97.9° (Epoch: 10 July)

Date Brightness Start Highest point End Pass type
(mag) Time Alt. Az. Time Alt. Az. Time Alt. Az.
10 Jul ? 01:15:36 10° N 01:19:47 64° WNW 01:21:55 27° SW visible
10 Jul ? 23:50:32 10° NE 23:53:24 18° E 23:54:53 15° ESE visible
11 Jul ? 01:25:13 10° N 01:29:18 51° WNW 01:31:32 24° SW visible
11 Jul ? 23:59:46 10° NE 00:03:02 22° E 00:04:30 18° ESE visible
12 Jul ? 01:34:51 10° N 01:38:49 41° WNW 01:41:09 21° SW visible
13 Jul ? 00:09:05 10° NE 00:12:40 26° E 00:14:07 22° SE visible
13 Jul ? 01:44:31 10° N 01:48:19 33° WNW 01:50:45 18° WSW visible
14 Jul ? 00:18:28 10° NNE 00:22:17 33° E 00:23:43 25° SE visible
14 Jul ? 01:54:12 10° N 01:57:47 28° WNW 02:00:22 15° WSW visible
15 Jul ? 00:27:53 10° NNE 00:31:52 40° E 00:33:20 30° SE visible
15 Jul ? 02:03:57 10° NNW 02:07:15 23° WNW 02:09:58 13° WSW visible
16 Jul ? 00:37:21 10° NNE 00:41:27 51° E 00:42:56 34° SSE visible
16 Jul ? 02:13:45 10° NNW 02:16:43 19° WNW 02:19:35 10° WSW visible
17 Jul ? 00:46:50 10° NNE 00:51:02 64° ESE 00:52:32 37° S visible
17 Jul ? 02:23:37 10° NNW 02:26:09 16° WNW 02:28:41 10° W visible
18 Jul ? 00:56:22 10° NNE 01:00:35 81° ESE 01:02:08 38° S visible
18 Jul ? 02:33:36 10° NNW 02:35:35 13° WNW 02:37:34 10° W visible
18 Jul ? 23:32:43 10° ENE 23:33:56 11° E 23:35:06 10° ESE visible
19 Jul ? 01:05:55 10° NNE 01:10:07 82° WNW 01:11:44 37° SSW visible
19 Jul ? 02:43:53 10° NW 02:45:01 11° NW 02:46:07 10° WNW visible
19 Jul ? 23:41:24 10° ENE 23:43:36 14° E 23:44:42 13° ESE visible
